Theta_e
325 325 326 325 324 325 325 324 324 323 322 321 319 316 313 311 309 309 309 309 308 307 306 306 305 304 302 300 298 297 297 296 296 296 295 294 293 298 305 308 313 317 319 322 323 324 324 325 325 326 326 326 326 325 325 325 325 326 326 326 326 326 326 325 326 326 327 327 327 327 327 328 326 324 324 323 324 323 323 323 322 322 323 323 323
322 322 321 320 320 321 320 320 320 320 320 318 318 317 315 311 307 307 307 307 306 306 305 303 302 301 300 298 297 296 296 296 295 294 293 292 292 292 300 303 306 311 315 317 319 321 324 324 324 325 325 325 325 325 325 324 324 325 326 325 325 325 324 323 323 323 323 323 324 324 326 327 327 327 326 324 324 324 323 323 322 321 321 321 321
320 319 319 318 318 318 318 318 318 317 316 313 313 310 308 306 304 304 304 303 302 302 303 301 300 299 298 297 296 296 295 295 294 293 292 292 291 291 292 298 301 304 308 313 315 317 320 323 324 323 323 324 324 325 324 323 323 323 324 324 324 324 324 323 323 323 323 323 323 323 323 324 325 326 327 325 325 325 324 323 323 322 322 322 322
317 316 316 315 315 314 314 313 312 312 311 310 307 306 305 304 304 302 302 302 302 301 301 300 298 297 296 295 295 294 294 293 293 293 292 292 291 290 290 291 296 299 301 307 311 313 314 316 319 320 320 322 323 323 323 323 323 321 323 323 323 323 323 322 322 322 322 321 322 322 321 322 323 323 324 325 326 325 324 325 325 325 325 324 322
314 314 313 313 313 312 311 310 309 308 308 307 307 306 305 304 302 302 302 301 301 300 300 298 296 295 295 294 293 293 292 292 292 292 291 291 291 290 289 289 288 293 296 299 304 309 310 312 313 316 318 318 320 321 322 321 321 322 321 322 323 323 323 322 321 320 320 321 320 320 320 320 320 321 321 322 323 324 325 324 324 325 325 326 326
312 311 311 310 310 309 308 307 307 305 305 304 303 303 302 302 300 299 299 298 298 298 297 296 294 294 293 292 292 291 291 291 290 290 290 289 289 289 289 289 288 287 288 294 298 303 307 308 309 311 313 314 315 317 320 319 320 320 320 321 319 319 319 318 318 318 317 317 316 316 316 317 317 318 319 320 320 321 322 323 324 325 324 324 325
309 309 308 307 307 306 306 305 304 302 299 299 298 298 298 297 298 297 296 296 296 296 296 294 293 292 291 291 290 290 290 289 289 289 288 288 288 287 288 288 288 288 287 286 291 297 302 304 306 308 310 312 313 313 316 318 316 317 319 319 318 317 316 317 316 316 317 316 316 315 315 316 316 316 316 316 317 318 319 320 320 322 323 323 324
305 305 304 304 304 303 303 301 299 298 297 296 295 294 294 294 294 296 296 295 296 294 294 293 292 291 291 290 289 289 287 287 287 287 287 287 287 286 286 286 287 288 290 285 285 289 298 300 302 304 307 307 310 310 311 314 314 314 314 316 317 317 316 315 315 315 315 314 314 314 314 315 315 316 316 315 315 315 316 317 318 319 320 321 322
303 303 303 302 301 300 300 299 298 296 294 293 293 293 293 292 291 292 295 294 294 293 293 292 292 291 290 289 288 288 286 286 285 285 286 285 285 286 286 285 287 289 286 286 285 285 290 296 298 299 301 304 306 308 308 310 313 312 313 315 316 316 314 313 313 313 312 313 313 313 313 313 314 315 315 316 315 315 315 314 315 317 318 319 320
301 301 300 299 299 299 299 298 296 295 293 292 290 290 290 291 290 290 292 293 293 292 292 292 292 291 290 289 288 287 286 286 286 287 284 284 284 284 285 284 284 284 284 285 284 284 285 288 293 293 295 300 303 306 306 307 310 310 311 313 315 316 313 313 312 312 311 312 312 312 312 312 312 313 313 314 315 314 314 314 315 315 315 316 317
298 298 298 297 296 296 296 296 295 294 292 291 290 290 290 290 290 288 289 290 291 291 291 291 291 290 289 289 288 288 287 287 286 284 283 283 286 286 285 284 284 284 283 284 284 284 284 284 284 284 286 296 300 302 304 305 307 307 309 313 314 314 314 312 312 311 311 311 311 311 311 312 311 312 312 313 314 314 314 314 314 314 314 314 314
296 296 295 295 294 293 292 293 293 292 290 289 289 288 289 289 289 290 289 288 287 287 289 290 288 288 288 287 286 286 286 286 285 284 283 282 282 283 283 283 283 283 282 283 283 283 283 283 285 284 285 289 295 297 300 301 302 305 307 311 313 312 313 311 311 310 309 309 310 310 310 310 310 311 312 312 312 313 313 314 314 315 315 314 314
294 294 293 293 292 292 291 291 290 289 288 287 286 285 286 287 286 288 289 288 285 284 284 286 288 286 286 286 286 286 286 284 283 283 283 281 281 282 281 282 282 282 281 282 282 282 282 282 283 283 284 284 286 291 294 296 297 302 306 308 310 311 310 310 309 308 307 308 308 308 309 309 310 311 312 312 313 313 312 312 313 313 314 315 315
292 292 292 292 291 290 289 288 288 287 286 285 285 286 284 285 287 285 283 284 282 282 283 285 287 284 284 284 285 284 286 283 283 282 282 282 281 282 281 281 281 281 281 281 281 281 281 281 282 282 283 284 284 284 285 287 290 299 303 305 308 309 309 309 309 308 307 307 307 307 308 308 309 310 312 312 312 312 313 313 313 313 313 313 313
291 291 291 290 289 288 287 286 285 286 285 284 283 283 283 283 284 285 283 282 283 283 282 283 284 283 283 284 283 281 285 281 282 282 281 281 281 281 281 280 280 280 280 280 280 280 281 281 281 282 282 283 283 283 284 287 289 293 297 300 301 305 308 309 308 308 308 307 307 307 307 307 308 309 310 311 311 312 312 312 312 312 313 312 312
289 288 288 287 287 286 285 284 284 284 284 284 283 282 283 282 283 284 284 281 280 282 283 282 283 285 285 283 281 280 280 277 278 279 278 279 280 280 280 280 279 280 280 279 279 279 280 280 280 281 282 282 283 283 283 284 287 290 292 295 297 302 305 307 307 307 307 307 307 307 307 307 308 308 310 311 311 311 311 311 311 311 312 312 312
287 286 286 285 285 285 284 284 284 283 284 284 283 282 282 281 281 282 281 282 280 279 282 282 281 283 284 279 278 278 278 276 276 277 278 278 279 278 281 279 279 280 279 279 279 279 280 280 280 280 281 281 282 282 282 282 283 285 287 293 296 298 299 304 306 307 307 306 307 306 306 307 307 308 309 309 309 310 310 310 310 310 311 311 311
284 285 285 285 284 284 284 284 283 284 284 283 283 282 282 282 281 281 281 281 282 280 280 282 281 282 281 280 279 277 277 278 275 276 276 277 277 278 278 279 278 278 278 279 279 278 281 279 279 280 280 281 281 281 281 281 284 283 286 290 297 298 299 300 304 304 305 306 306 306 307 306 306 307 307 307 307 307 307 308 309 309 310 310 310
284 283 284 284 284 284 283 283 283 283 284 283 282 282 282 282 282 282 281 283 281 280 280 280 280 281 280 280 280 278 276 274 276 275 273 275 276 276 277 278 278 277 278 278 278 278 278 279 278 279 278 280 280 280 280 280 284 285 290 293 298 298 298 298 298 299 301 302 303 304 305 306 305 306 305 305 306 306 307 308 308 309 309 309 310
283 283 283 284 283 283 283 283 283 282 283 282 282 281 282 282 282 281 281 280 280 280 278 277 278 279 281 279 279 279 278 278 275 276 275 273 274 275 274 278 277 276 277 277 278 278 277 278 278 279 278 279 280 279 279 280 280 281 284 293 296 298 296 296 295 295 295 297 300 302 303 305 305 305 305 305 306 306 307 307 307 308 309 309 309
282 283 282 283 284 283 282 282 282 282 282 281 281 281 280 280 280 281 280 280 280 279 279 278 279 279 277 277 277 276 276 277 275 275 275 273 272 273 274 275 275 274 276 275 277 278 277 277 279 278 280 279 279 278 279 279 280 280 286 291 294 296 295 294 294 293 293 294 297 299 301 304 305 305 305 305 305 305 306 306 306 307 307 307 308
282 281 282 282 282 282 282 282 281 282 282 281 280 280 280 280 280 280 280 280 279 279 279 277 278 276 277 277 276 275 275 276 276 274 274 274 274 273 273 273 273 274 276 275 276 277 277 277 276 277 277 278 278 278 278 279 280 281 285 288 290 292 293 293 293 292 292 293 294 295 299 301 302 303 304 304 305 304 305 305 305 305 306 306 306
281 281 281 281 282 282 281 281 282 282 281 280 280 280 280 280 279 279 279 279 279 279 279 278 278 278 277 277 276 277 277 276 275 275 274 274 272 272 273 274 274 273 274 276 278 276 276 276 275 276 277 278 278 278 278 278 281 283 286 285 286 287 289 291 291 290 291 293 294 295 295 296 297 299 301 302 303 304 304 304 304 304 304 305 305
280 281 280 280 281 281 281 281 281 280 280 280 280 280 280 279 279 279 279 278 278 279 278 277 277 278 277 277 277 277 277 277 276 276 276 275 275 273 273 274 273 274 275 276 275 275 276 275 275 276 276 277 277 278 278 278 279 284 283 283 284 286 288 289 290 290 292 293 293 293 294 294 294 295 297 299 301 302 303 303 303 303 304 304 304
279 280 279 280 280 280 280 280 280 280 280 280 279 279 279 279 279 278 278 278 277 278 277 276 277 277 276 276 276 277 276 276 277 276 276 276 275 272 273 274 272 273 273 274 274 275 275 274 275 276 276 276 277 276 277 277 278 282 283 281 283 283 285 286 287 290 291 291 291 292 292 293 293 294 296 297 299 300 301 301 302 302 303 304 304
280 280 280 280 280 280 280 279 279 279 279 279 279 279 279 279 278 278 277 277 277 277 277 277 276 276 276 276 276 275 275 277 276 276 276 275 274 273 273 273 273 272 273 273 273 275 273 275 275 275 275 275 275 276 277 277 277 281 283 279 278 282 283 284 287 289 290 290 290 290 290 290 292 292 293 295 296 298 299 299 300 300 301 302 302
280 280 280 279 279 279 279 279 279 279 279 279 279 279 279 278 278 278 277 277 277 277 276 277 277 276 276 276 276 276 275 276 275 276 276 276 275 274 273 272 271 272 271 273 272 273 273 274 275 275 275 276 276 276 277 276 278 281 281 277 275 279 281 284 288 289 289 289 289 289 289 289 290 291 291 291 293 294 296 297 297 298 298 299 299
280 280 279 279 279 279 279 279 279 279 279 278 278 278 278 278 277 277 277 278 277 276 276 276 276 276 275 275 275 275 275 276 276 276 275 276 276 275 274 273 272 269 271 270 271 271 273 273 273 274 274 275 275 275 278 277 276 280 279 276 275 275 279 284 287 288 288 288 288 288 288 288 289 289 290 290 291 291 291 292 293 293 293 294 294
280 280 279 279 279 279 279 278 278 278 278 278 278 277 277 277 277 277 276 276 276 276 276 276 275 275 275 275 275 275 275 275 275 276 276 275 275 274 274 272 274 271 268 268 271 270 272 274 274 274 274 274 274 275 275 275 277 278 276 275 275 274 278 284 285 287 287 288 287 287 288 288 288 288 289 289 289 290 291 291 291 292 292 293 293
280 280 279 279 279 279 278 278 278 278 278 277 277 277 277 276 276 276 276 276 276 276 276 275 275 275 275 275 275 275 274 274 275 275 274 274 274 274 273 274 274 271 271 269 270 272 271 273 272 272 273 273 275 275 275 274 278 277 275 275 274 274 280 281 282 284 285 287 287 287 288 288 288 288 288 288 289 289 290 290 290 290 291 291 293
279 279 278 278 278 278 278 278 277 277 277 277 277 276 276 276 276 275 275 275 275 274 275 275 275 275 274 274 274 274 274 274 274 274 274 274 274 274 273 274 274 272 272 271 268 271 272 272 272 273 272 273 274 274 274 274 276 277 275 274 274 278 279 277 279 281 283 284 285 285 286 287 287 287 288 287 288 289 289 289 289 289 290 290 292
279 278 278 278 278 278 277 277 277 277 277 276 276 276 276 276 275 275 275 274 274 274 274 274 275 274 273 273 273 273 273 273 273 273 273 273 273 273 273 273 272 272 272 272 270 270 273 272 272 272 273 273 273 273 273 274 275 277 274 274 274 277 274 274 277 279 281 282 284 285 286 287 287 287 287 287 287 288 288 288 288 289 289 289 290
278 278 278 278 278 278 277 277 277 276 276 276 275 275 275 275 275 274 274 274 273 273 273 273 273 273 273 273 273 273 273 273 273 273 273 272 272 273 273 272 273 272 272 271 269 269 271 272 272 272 273 273 272 273 272 273 273 273 275 273 274 273 273 273 274 277 280 281 283 285 285 286 287 287 287 287 287 287 287 288 288 287 288 289 289
278 278 278 278 278 278 277 277 276 276 276 276 275 275 275 274 273 274 273 273 273 272 272 272 273 274 273 272 272 272 273 272 272 272 272 272 272 271 271 272 271 272 272 271 269 269 268 272 271 272 272 273 271 273 272 272 272 273 272 273 273 273 273 273 273 274 279 281 282 284 285 286 287 287 287 286 287 287 287 287 287 287 287 288 288
278 278 278 278 278 278 278 277 276 275 276 275 275 274 274 274 273 273 273 273 273 272 272 272 272 272 272 272 271 272 272 271 271 271 272 271 272 271 271 271 270 271 271 271 270 268 269 269 271 271 271 272 272 272 272 273 273 273 272 272 272 273 274 274 274 274 278 281 283 284 285 285 285 285 285 286 286 286 286 286 286 286 286 286 286
278 278 278 278 278 277 277 276 275 275 275 275 274 273 273 273 273 273 272 273 273 272 272 272 272 272 272 271 271 271 271 271 271 271 271 271 271 271 271 271 271 271 271 271 271 270 269 268 270 271 272 271 272 273 273 273 272 272 272 272 273 273 273 274 274 274 276 281 283 283 283 284 284 284 284 285 285 285 286 286 286 286 286 285 285
278 278 278 278 277 277 276 276 276 275 275 275 274 274 274 274 273 272 272 272 272 272 272 272 274 272 271 271 271 270 270 269 270 270 271 270 271 270 270 271 271 271 271 271 271 271 270 268 269 271 272 272 272 272 273 271 272 272 272 272 272 272 273 274 274 275 278 280 281 281 281 282 283 283 284 284 285 285 285 285 286 285 285 285 284
278 278 278 277 277 277 277 276 276 275 274 274 274 274 273 273 272 272 271 272 272 272 272 272 272 271 271 270 271 270 269 269 269 270 270 270 270 270 270 270 271 271 271 271 271 270 270 269 269 269 270 270 270 271 272 272 271 271 271 272 273 273 273 273 274 275 276 276 275 276 278 279 280 282 283 284 284 285 285 285 284 284 284 283 282
278 278 277 277 277 277 277 276 275 274 274 273 273 273 273 272 273 273 271 271 272 271 271 271 271 271 271 270 270 270 270 270 269 269 269 269 270 270 270 270 271 271 270 270 271 270 270 269 269 269 269 270 271 269 271 272 272 272 271 271 271 273 274 273 273 275 276 276 278 280 279 279 281 280 281 283 283 284 284 284 283 283 282 282 282
278 278 277 277 277 277 277 276 275 275 274 273 273 273 273 273 273 272 273 272 271 271 271 270 271 270 271 271 270 271 271 270 270 269 270 269 270 270 271 270 270 270 269 269 269 269 268 268 268 268 269 269 270 271 272 272 271 272 273 272 270 271 273 274 274 274 275 275 275 275 278 278 278 279 281 281 281 282 282 281 281 281 280 281 282
278 278 278 278 276 276 275 275 275 275 274 274 274 273 272 272 273 273 273 273 271 271 270 270 270 270 269 270 270 270 272 274 276 276 275 275 271 267 269 270 269 269 268 266 265 266 267 267 267 269 269 270 270 270 270 270 271 271 273 273 272 273 273 273 274 275 275 274 274 275 275 276 275 275 274 274 275 277 277 279 279 278 279 281 283
278 277 277 277 276 276 275 275 274 274 274 274 275 277 276 274 273 273 272 272 272 271 270 270 269 270 270 269 270 275 275 276 276 276 276 276 277 274 270 269 268 267 264 264 264 267 268 268 268 269 269 269 270 270 271 272 273 273 273 273 271 272 272 271 272 273 274 273 272 271 272 274 273 272 273 273 274 275 275 275 275 277 280 282 283
277 277 276 276 276 276 275 274 274 274 274 274 278 280 279 278 274 273 273 272 272 271 270 270 270 270 269 269 268 272 274 274 273 274 275 275 275 275 276 276 275 271 267 267 268 270 269 268 270 270 270 269 271 272 272 272 273 273 272 272 271 270 269 267 266 270 273 272 270 269 269 271 272 271 272 273 273 274 275 275 279 281 281 282 283
276 276 276 276 276 276 275 274 274 274 274 276 280 281 281 280 277 274 273 272 272 271 270 270 270 270 269 269 269 269 269 269 269 269 272 274 274 274 275 275 276 276 276 273 271 270 271 270 271 271 271 271 272 272 272 272 271 271 271 271 270 269 268 267 267 266 270 271 269 267 268 271 272 272 272 273 274 275 276 279 280 280 281 282 282
276 275 276 276 275 275 274 274 274 274 273 278 281 282 282 282 280 276 273 273 271 271 271 270 270 269 269 269 269 269 269 273 271 268 267 267 272 274 275 275 276 276 277 277 278 276 275 273 272 272 272 272 271 272 272 271 272 270 270 269 268 268 268 267 267 267 268 270 269 268 267 270 271 271 271 273 274 274 273 276 278 280 281 281 281
276 276 276 275 275 274 274 274 274 274 273 277 281 283 283 282 282 278 273 273 272 271 271 271 270 269 269 269 268 268 268 268 268 268 268 267 267 267 268 269 269 272 276 277 277 277 277 274 273 272 273 273 271 272 272 273 270 268 268 267 268 267 266 265 267 267 268 271 268 267 265 267 270 269 268 270 271 271 271 275 278 279 280 280 280
276 276 276 275 275 274 274 273 273 273 273 278 281 283 283 283 283 281 274 273 272 272 271 271 270 269 269 269 268 268 268 267 268 268 267 267 265 265 267 269 270 270 271 272 273 274 274 274 274 273 274 273 272 272 272 272 271 270 270 269 268 266 266 268 267 268 268 270 268 266 262 266 269 267 267 269 270 270 271 274 276 278 279 279 280
276 275 274 274 274 274 273 273 273 272 272 278 281 283 284 284 284 280 274 274 272 272 271 271 270 270 269 269 268 268 268 267 270 274 273 270 269 267 267 270 271 272 273 275 276 277 276 275 275 274 273 273 275 273 273 272 271 271 271 268 265 265 265 263 263 264 264 267 267 266 264 265 267 266 267 269 270 269 270 270 274 277 278 279 279
274 274 274 274 273 273 273 273 272 272 272 276 281 283 284 284 283 278 274 273 272 271 271 271 270 269 268 268 268 267 268 267 271 274 275 275 272 271 271 270 271 273 274 275 276 276 276 276 276 275 275 275 275 274 274 274 273 272 267 263 261 263 263 262 262 263 263 265 266 267 265 263 266 267 267 268 268 268 268 269 270 274 277 278 278
274 274 273 273 272 272 272 272 272 272 272 274 280 282 284 284 283 277 274 272 272 271 271 272 270 269 268 271 270 268 268 268 272 275 276 275 273 273 272 272 272 272 272 273 272 272 274 273 272 272 272 272 272 272 272 272 273 272 264 261 263 264 263 263 261 263 264 264 265 268 265 265 267 268 266 267 267 268 268 269 270 272 275 275 277
274 272 272 272 271 271 272 272 274 273 272 274 278 281 283 284 283 276 274 271 271 270 270 269 269 268 268 270 272 271 269 269 274 275 276 276 274 273 273 273 272 271 271 272 270 267 266 265 266 265 265 267 266 265 266 271 271 270 267 265 265 263 262 263 263 263 261 262 266 269 265 265 266 267 266 264 263 266 269 269 269 270 271 271 272
Wind_Speed
5 4 4 5 5 4 4 5 5 4 5 5 5 5 5 5 6 6 6 7 7 6 7 8 8 8 9 9 9 9 9 9 9 9 8 8 9 15 22 22 22 23 23 24 23 23 23 23 22 21 22 21 21 21 20 20 20 20 20 20 20 21 21 21 22 22 22 20 18 17 18 19 16 12 12 13 14 14 15 16 15 13 13 14 14
4 5 6 6 6 5 6 6 6 5 5 6 5 6 6 6 5 6 8 8 7 5 7 8 9 8 9 9 9 8 8 9 9 8 8 8 9 11 19 21 23 23 23 23 24 24 23 23 24 23 22 22 21 21 20 20 20 21 21 21 21 21 21 21 21 21 21 21 21 21 20 19 19 19 17 14 12 13 13 13 15 14 13 12 12
5 6 6 6 6 5 5 5 7 6 6 6 5 7 6 6 6 6 7 8 6 5 7 8 8 9 8 10 8 8 8 8 8 8 9 8 8 8 11 19 21 22 23 23 24 24 24 23 24 24 23 21 20 21 21 21 21 21 21 21 21 21 21 22 21 21 21 21 21 21 21 23 22 19 17 16 17 17 15 13 12 13 14 14 15
7 6 7 7 6 7 6 6 6 6 7 5 7 6 7 7 7 6 7 7 7 6 6 9 9 7 9 9 8 9 8 7 8 8 8 8 8 8 8 10 17 21 22 23 23 24 24 23 23 23 23 23 23 23 23 22 21 19 20 21 21 21 22 22 22 23 23 23 22 22 22 22 22 22 22 21 18 17 17 18 18 18 18 16 15
6 7 8 7 6 8 7 7 5 5 6 8 9 7 7 7 7 5 7 7 8 8 8 8 9 8 9 8 8 8 7 8 7 8 8 8 8 8 8 8 9 14 19 21 22 23 23 24 23 23 23 23 23 23 22 23 23 22 21 22 22 24 24 24 24 24 24 24 24 24 23 22 22 22 22 22 22 21 19 17 17 18 18 20 20
7 7 7 8 7 7 8 7 6 5 6 6 8 7 7 8 7 7 7 8 8 6 8 9 7 8 8 7 8 7 7 8 7 7 7 7 7 8 7 8 8 8 9 15 20 22 23 24 23 23 23 23 23 23 22 22 22 23 22 22 23 23 23 23 23 22 22 22 22 22 22 22 22 22 22 22 22 22 21 21 20 19 19 19 19
5 8 7 7 8 8 7 6 6 6 7 6 5 6 6 7 5 9 7 8 8 6 8 8 9 9 7 7 7 6 7 7 7 7 7 6 8 7 7 8 8 8 8 8 11 18 21 23 23 23 23 23 23 23 22 22 22 22 22 22 19 18 18 19 21 22 22 22 22 23 23 23 23 23 22 22 22 22 22 22 21 21 20 20 19
6 6 8 6 7 7 6 5 6 6 7 6 6 7 7 7 6 5 10 7 9 8 7 9 9 8 6 7 6 7 7 7 7 7 6 7 7 7 7 7 7 8 8 8 8 10 20 20 22 23 23 23 23 23 23 23 23 22 22 21 22 21 20 20 20 22 23 23 23 24 24 23 23 23 23 22 22 22 21 21 21 21 21 21 21
6 6 8 7 7 7 6 6 5 8 7 6 7 5 7 8 7 6 7 8 9 9 8 9 8 7 7 7 6 7 7 6 6 5 5 8 7 7 7 8 7 8 8 8 8 7 12 19 19 20 21 23 23 23 23 23 23 23 22 22 21 22 21 20 19 20 22 23 23 23 24 24 24 24 24 23 22 22 21 21 21 21 21 21 21
6 7 8 7 6 7 6 6 7 7 8 8 7 5 5 8 9 6 6 8 8 9 9 8 7 7 7 7 6 7 6 6 6 6 7 7 7 8 6 6 7 8 8 8 8 8 8 12 16 17 19 21 23 22 23 23 23 23 23 23 22 22 22 21 20 20 21 23 24 24 24 25 25 25 25 25 23 22 22 21 21 21 21 21 21
6 6 8 7 7 6 7 6 6 7 8 8 6 6 7 8 11 9 8 7 7 7 8 8 8 7 7 6 6 6 5 5 6 7 7 6 6 5 5 8 7 7 8 8 7 8 9 8 8 8 10 20 20 22 22 23 23 23 23 23 23 23 23 24 24 23 23 23 24 25 25 24 25 24 25 25 25 24 24 23 22 21 20 20 21
6 6 7 7 7 6 6 5 6 7 8 8 6 6 9 11 8 11 10 8 7 6 5 9 8 8 7 6 5 5 6 6 7 7 6 7 6 6 7 6 8 7 7 7 7 7 8 8 8 8 8 12 19 20 21 22 22 23 24 24 24 24 24 23 24 24 24 24 23 24 24 24 24 24 24 25 25 25 25 24 24 23 23 21 20
6 6 7 8 7 7 7 7 6 7 8 7 6 7 6 7 7 6 9 10 6 4 3 3 9 6 5 5 6 4 4 6 7 6 6 6 6 7 6 7 7 7 7 6 7 7 7 8 8 7 8 7 10 16 18 20 21 23 24 24 24 24 24 24 24 24 24 24 24 24 25 24 25 24 25 24 24 24 25 25 25 24 24 24 24
5 6 6 7 8 7 7 7 6 7 7 6 6 5 5 6 7 8 5 6 4 3 4 1 3 5 6 3 2 2 2 6 7 5 5 6 6 8 7 8 8 7 7 7 7 7 7 7 7 8 8 8 8 8 9 11 14 22 23 25 25 24 24 24 24 24 24 25 25 25 25 25 25 25 25 25 25 25 24 24 24 25 25 24 24
6 6 7 7 7 8 7 5 5 6 8 7 7 7 6 6 5 9 7 4 5 5 5 2 3 2 2 5 0 0 1 3 2 4 5 5 5 7 6 7 7 5 6 6 7 7 6 7 7 8 8 8 7 7 8 9 12 19 22 23 24 24 24 24 24 25 25 25 25 25 25 25 25 25 25 25 25 25 25 25 24 24 24 25 25
7 6 6 7 6 8 6 6 6 4 7 8 7 6 6 5 6 5 8 6 3 6 5 4 3 5 2 0 1 1 1 0 2 1 2 1 5 5 5 6 6 6 5 7 7 6 6 6 7 7 7 7 7 7 7 8 13 16 18 18 23 24 24 24 24 24 24 25 25 25 25 25 25 25 25 25 26 26 26 25 25 25 25 25 24
7 6 6 8 6 6 7 6 6 5 6 8 7 6 4 4 4 4 3 8 4 2 6 6 7 3 5 3 1 1 1 1 2 1 3 2 5 4 5 7 7 6 6 6 4 6 6 7 6 6 6 7 7 7 7 8 8 8 10 14 22 22 22 23 24 24 24 24 25 25 25 25 25 25 26 26 26 26 26 26 26 26 25 25 25
6 6 6 6 7 6 6 7 7 6 6 7 6 6 6 6 4 4 6 4 9 4 4 4 6 8 7 3 0 2 3 2 1 0 3 1 3 4 6 8 6 6 6 7 8 6 5 6 5 6 6 6 7 7 7 7 8 8 9 14 25 23 22 22 22 23 24 25 25 25 25 25 25 26 26 26 27 27 27 27 26 26 26 26 25
6 5 6 6 7 7 7 7 7 7 6 7 7 6 5 4 4 7 5 4 5 7 7 4 5 8 6 6 9 6 3 3 0 2 2 2 4 5 5 7 6 6 7 6 7 7 6 5 6 5 5 6 7 6 6 7 10 12 20 24 24 23 22 22 22 23 24 25 25 26 26 26 26 26 26 27 27 27 26 27 26 26 26 26 25
6 5 5 6 7 7 7 8 8 6 7 7 7 5 6 5 6 5 6 6 4 8 5 2 6 2 4 7 7 7 7 7 3 1 2 0 3 3 1 6 5 3 3 4 7 7 6 7 6 6 5 6 6 6 7 8 8 11 12 22 22 22 23 22 23 23 24 25 26 26 25 26 26 27 27 27 27 27 26 26 26 26 26 25 26
4 6 5 6 6 8 7 8 8 6 6 6 5 5 6 6 6 7 7 6 6 4 6 5 6 5 4 4 5 5 5 4 3 3 2 1 3 1 5 4 3 2 4 3 5 6 4 4 4 3 5 5 6 6 7 8 9 9 11 19 21 22 23 23 23 24 24 25 25 25 26 26 26 26 27 27 27 26 26 26 26 26 26 26 26
5 4 6 5 7 7 7 7 7 6 6 6 6 7 6 7 6 7 7 8 5 6 7 5 5 3 2 4 4 2 4 4 4 3 2 2 1 3 3 5 8 5 2 4 4 4 4 5 4 5 5 6 6 6 6 7 7 7 10 18 20 22 23 23 24 24 24 24 24 24 25 25 26 27 27 27 27 27 27 27 27 27 27 27 27
5 5 5 5 6 6 7 6 6 6 6 6 6 7 6 7 7 8 8 8 7 8 7 4 5 6 6 6 6 5 3 2 1 3 2 1 3 3 2 2 3 6 5 6 7 4 2 2 3 4 4 5 5 6 6 6 7 13 16 16 20 21 22 23 24 24 24 24 24 24 24 25 25 26 27 27 27 27 27 27 27 27 26 27 26
4 6 5 4 6 6 5 6 6 6 6 6 6 7 6 6 7 7 7 6 6 7 6 7 7 7 7 6 6 5 5 5 2 2 4 2 1 2 3 4 3 4 6 5 4 3 5 2 3 4 5 5 6 6 7 8 10 20 13 14 20 22 22 24 24 23 23 23 24 24 24 24 25 25 25 26 26 27 27 27 27 27 26 26 26
5 7 4 5 6 7 6 6 6 5 6 6 5 6 7 7 7 7 6 6 6 6 7 6 6 7 6 4 5 5 5 2 3 3 2 4 4 4 2 1 3 5 3 2 2 4 1 2 3 4 5 5 5 5 5 7 7 14 17 9 21 21 23 23 23 23 23 23 23 24 24 24 25 25 25 25 26 26 27 27 27 27 28 28 27
8 7 6 5 4 5 5 5 5 5 6 6 6 5 6 7 7 7 6 5 6 7 8 6 6 5 4 6 5 5 4 3 3 4 3 3 3 2 2 3 2 5 3 2 1 2 3 2 4 4 6 6 6 7 8 8 7 15 19 12 14 21 23 23 23 23 23 23 23 23 24 24 24 24 25 25 25 26 26 27 28 28 28 28 28
7 6 5 6 5 5 5 6 6 6 6 7 6 6 6 7 6 7 6 5 6 7 6 7 7 6 5 6 5 5 4 3 4 4 3 4 4 2 3 6 6 2 3 2 1 2 2 3 3 4 5 6 7 8 9 8 10 18 18 10 9 18 21 23 23 24 23 23 23 23 23 23 24 24 24 24 25 25 25 26 26 27 27 27 27
6 7 5 6 7 7 6 6 6 6 6 7 7 7 7 8 7 6 7 3 7 7 6 7 7 6 6 4 6 4 3 3 4 4 5 3 4 3 3 3 1 6 4 5 2 2 0 0 1 3 6 6 7 7 9 10 8 18 14 8 9 10 19 22 23 23 23 23 23 23 23 23 23 23 24 24 24 24 24 24 24 24 25 26 26
7 6 7 5 6 7 7 7 6 6 6 6 6 6 6 7 7 7 7 5 6 6 5 6 5 5 5 5 5 4 3 3 3 4 4 3 3 2 1 3 2 1 3 5 4 1 3 1 0 2 6 7 7 6 7 6 11 14 9 9 10 9 16 22 23 22 22 23 23 23 23 23 23 23 23 23 24 24 24 24 24 24 24 25 26
6 6 6 7 6 7 8 7 6 6 6 6 6 6 7 7 6 6 6 6 7 5 5 6 6 5 5 5 4 5 2 3 4 3 3 3 3 3 2 0 2 3 2 2 6 1 2 2 2 3 4 5 6 6 5 6 12 13 8 9 10 10 20 21 22 22 22 23 23 23 23 23 23 23 23 23 23 23 23 24 23 23 24 25 26
6 6 7 7 7 7 7 7 6 6 5 6 6 6 6 7 6 7 5 6 7 6 4 5 5 6 6 5 3 4 3 3 3 3 3 3 3 2 2 2 1 2 2 2 3 4 4 1 1 2 3 5 6 6 5 5 8 12 9 8 9 17 22 15 20 21 22 23 23 23 23 24 24 24 24 24 24 24 24 24 24 23 24 25 25
5 6 6 7 7 8 6 7 6 6 6 5 6 6 6 6 7 6 5 6 7 7 5 4 5 5 5 5 3 4 3 3 3 3 2 2 2 3 1 1 1 0 1 3 4 11 1 2 2 4 5 7 6 7 6 5 6 11 7 8 10 16 10 9 15 20 21 22 23 23 24 24 24 24 24 24 24 25 24 23 24 24 24 24 25
7 7 7 7 7 7 8 8 8 7 7 7 5 6 6 6 5 6 6 6 7 5 6 5 3 4 5 5 3 3 3 4 3 3 3 2 1 2 1 1 2 1 1 1 4 10 7 2 4 5 6 7 6 4 7 7 7 7 7 7 8 8 9 8 9 15 20 22 23 23 24 24 24 24 24 24 24 24 24 24 24 24 25 26 26
7 8 7 6 6 6 7 7 7 7 6 7 6 6 7 7 6 5 6 6 7 6 5 5 3 3 4 5 3 3 2 3 3 2 2 1 0 0 1 2 1 1 1 2 4 4 13 6 5 4 5 6 8 4 6 10 9 6 8 7 7 7 8 8 8 9 19 21 23 24 24 25 25 25 25 24 24 24 24 24 24 25 25 26 26
5 5 7 6 6 6 6 6 5 5 6 7 6 6 7 8 8 5 6 7 7 7 6 5 4 4 4 4 3 3 2 3 2 1 1 0 1 0 1 1 1 2 2 2 1 5 7 11 5 8 7 6 6 8 7 6 7 7 8 9 8 7 7 8 8 8 15 21 23 23 24 25 25 25 24 24 24 24 24 24 25 26 26 26 26
7 5 5 6 6 6 7 7 6 6 6 6 5 5 6 7 7 7 6 6 6 6 6 5 4 4 4 3 3 3 2 2 1 1 1 1 0 0 1 2 2 3 3 2 3 4 6 10 7 7 8 9 8 6 6 7 7 8 8 8 7 7 8 8 8 8 12 21 23 24 24 24 25 24 24 23 23 24 24 25 26 27 27 26 25
6 6 6 5 6 6 8 8 7 7 7 7 8 7 6 6 7 7 6 5 5 5 5 5 5 4 3 4 3 3 2 2 1 2 1 0 1 1 2 3 3 3 2 2 4 4 6 8 10 5 6 7 7 7 7 9 10 8 7 8 8 8 9 8 8 9 14 21 21 21 22 23 23 23 23 23 23 24 24 26 27 27 27 26 25
7 6 7 6 7 7 7 6 6 6 6 6 7 8 8 6 5 5 5 5 4 5 4 4 4 4 4 4 3 3 3 3 2 1 1 1 1 1 2 3 3 2 3 3 4 5 5 6 7 10 6 7 9 7 6 8 10 12 11 8 6 5 8 11 9 8 9 8 8 9 12 15 18 22 23 23 24 25 26 28 28 27 26 25 24
9 8 8 8 6 6 7 6 6 6 5 5 5 7 7 7 7 7 6 4 4 4 3 4 4 4 4 3 3 3 3 3 3 3 2 2 2 3 3 3 3 2 3 4 4 4 5 6 6 6 9 7 7 10 8 7 8 8 11 13 12 8 8 10 12 10 8 10 11 16 16 17 19 17 20 24 26 28 29 27 26 26 25 24 24
9 9 9 8 7 6 6 6 5 5 5 5 5 6 7 7 6 6 6 6 5 4 3 3 3 4 4 4 4 3 4 3 3 3 3 3 3 3 4 3 3 3 3 4 3 4 4 5 6 8 7 8 8 7 7 7 9 8 6 11 15 16 15 12 11 12 11 9 9 8 9 11 11 16 21 23 26 28 27 24 24 23 24 24 23
7 7 7 7 7 6 5 6 6 6 6 7 6 7 7 6 5 7 7 6 5 4 3 3 3 3 3 3 3 3 3 5 7 6 6 6 5 3 3 3 3 3 3 2 2 3 4 5 7 7 7 7 7 9 10 9 10 12 13 12 13 12 13 14 11 9 10 11 10 8 8 9 11 10 11 11 12 18 17 21 18 21 22 22 23
7 7 7 7 7 7 8 7 6 6 6 5 6 11 10 9 8 6 5 5 5 5 5 4 3 3 3 3 3 6 6 5 4 5 5 5 6 4 5 4 4 3 3 3 3 4 5 6 7 8 8 8 8 9 10 10 11 12 12 12 12 13 13 14 14 9 11 11 11 13 11 10 11 12 10 10 11 12 9 9 9 14 20 23 24
8 8 7 8 8 8 9 8 8 6 6 5 12 14 13 13 9 9 8 7 6 5 4 5 6 5 3 3 3 4 4 4 2 4 5 5 5 5 7 7 6 6 5 4 5 6 6 6 7 6 7 9 9 9 11 12 12 11 10 11 12 13 12 14 16 15 4 9 12 13 13 10 9 10 9 9 10 10 9 9 18 21 23 24 24
7 7 9 9 8 8 7 7 8 7 7 9 15 15 14 14 10 6 5 7 7 6 5 5 5 4 4 4 3 3 3 3 3 2 4 5 6 6 7 6 7 8 8 6 6 6 6 6 6 5 7 10 10 10 11 10 9 9 9 10 12 11 13 12 12 14 12 11 13 12 13 9 8 9 9 10 10 9 10 17 23 25 25 25 24
7 9 10 9 9 8 9 10 9 8 8 12 16 16 15 15 14 9 4 4 6 6 5 5 5 5 5 5 4 4 3 6 4 3 2 2 6 7 7 7 7 9 9 11 12 8 6 7 7 8 8 10 12 9 8 10 11 10 11 10 10 10 10 11 12 14 14 12 12 11 14 13 10 11 12 11 12 11 13 18 25 25 24 24 23
9 9 8 11 10 10 10 10 9 8 8 12 17 18 17 16 15 11 7 6 6 5 5 5 5 6 6 6 5 4 3 3 2 3 3 3 3 3 3 3 3 7 11 13 13 14 12 8 7 8 10 9 7 8 10 11 11 11 10 11 9 7 7 9 14 14 12 11 11 12 13 11 10 11 12 12 11 12 11 17 24 23 23 23 22
11 12 12 11 10 9 9 8 8 8 8 14 18 19 18 18 17 13 6 5 5 5 5 5 6 6 6 5 5 5 4 4 4 5 4 4 3 3 4 4 5 6 7 7 7 6 6 6 7 9 7 5 7 10 10 10 9 8 9 9 8 8 9 10 10 9 8 7 10 10 10 12 9 11 11 11 12 12 10 15 21 22 22 21 22
6 5 5 6 9 9 9 8 8 9 8 16 18 19 19 18 19 9 7 7 7 6 6 6 6 6 5 5 5 5 5 5 7 11 9 6 5 5 6 7 7 8 7 9 13 10 7 7 6 5 6 8 12 11 10 8 7 7 5 5 5 5 7 8 9 9 7 6 7 9 10 11 8 10 12 12 12 13 13 10 16 21 21 22 24
8 9 10 10 8 9 9 9 10 9 8 14 19 19 19 20 15 7 8 7 6 7 7 5 5 6 5 5 5 5 6 6 9 11 11 11 7 8 8 7 8 8 7 5 4 6 9 11 10 9 11 13 14 14 13 14 10 9 4 6 5 5 7 9 8 8 9 7 6 6 8 11 9 10 12 12 12 13 12 11 10 15 22 24 23
11 11 9 8 7 7 9 10 10 10 9 11 18 19 20 21 15 10 9 8 7 7 6 7 6 6 6 11 8 7 7 7 10 12 12 9 7 7 7 9 9 7 5 3 2 3 4 3 5 7 8 9 10 11 12 12 12 9 4 6 6 5 7 6 9 9 11 8 5 6 9 10 12 11 11 11 12 8 9 9 11 14 19 17 22
8 5 6 7 6 6 8 9 8 10 8 9 16 19 20 20 15 8 8 8 8 8 7 7 6 6 6 9 14 12 9 9 14 12 13 10 7 8 9 9 8 7 5 4 4 3 1 3 4 5 5 5 5 5 7 13 12 9 5 5 5 5 6 7 8 9 10 6 2 10 10 10 12 11 11 12 11 9 5 9 12 11 10 10 12
Wind_Direction
91 88 90 83 57 57 87 93 88 87 98 87 81 67 65 63 57 66 67 66 53 50 56 54 58 61 70 64 59 57 55 54 50 46 42 42 38 32 35 36 37 39 39 39 39 38 38 36 35 34 34 33 33 31 30 28 28 29 29 29 28 27 26 25 23 23 25 25 18 11 6 352 336 338 340 343 349 350 353 350 346 343 339 339 338
87 84 91 87 90 81 81 82 81 65 68 71 69 79 79 74 68 76 75 70 56 33 62 65 63 63 64 68 60 60 56 56 52 49 48 44 39 32 30 36 37 37 38 39 40 39 39 38 37 36 33 32 31 31 30 29 28 28 28 29 27 26 27 26 22 21 20 19 16 14 14 12 8 354 338 336 338 339 344 345 344 340 337 333 327
90 90 90 90 83 76 77 84 86 82 78 76 69 82 79 76 65 66 75 74 63 42 68 73 68 65 65 67 63 63 59 58 58 53 49 42 41 37 28 30 35 35 35 38 39 40 39 38 38 36 35 33 33 32 31 30 28 26 26 26 27 25 26 26 24 22 21 19 16 14 12 13 13 10 1 345 335 333 333 334 331 332 333 332 325
86 89 94 93 93 91 82 79 83 89 92 91 85 80 83 75 70 73 80 78 75 64 63 77 69 67 68 67 65 65 61 60 58 54 51 47 41 37 35 28 28 32 32 32 36 38 39 38 36 35 35 34 35 35 34 32 30 28 26 26 25 25 25 25 23 23 21 18 17 15 13 12 10 8 7 7 356 342 334 334 332 329 331 327 324
89 94 97 91 92 91 84 78 72 76 88 94 88 80 76 79 68 65 72 78 76 74 72 70 74 66 68 65 68 64 63 62 57 53 51 47 42 38 37 32 29 26 26 28 27 33 36 36 35 34 34 33 33 33 33 32 30 30 29 30 34 34 32 29 26 24 21 19 17 15 13 11 9 7 6 3 3 2 354 342 337 333 326 325 324
102 94 88 90 83 80 88 83 76 77 77 74 86 84 83 78 79 77 64 74 77 73 84 78 73 69 68 68 68 65 65 61 55 54 51 47 41 41 34 34 32 30 23 22 24 27 31 33 33 32 32 32 31 31 31 31 31 29 29 31 32 29 28 26 25 23 20 19 16 14 12 10 8 6 4 3 1 359 358 357 352 343 337 332 330
85 102 90 94 93 90 80 87 91 84 81 69 80 84 82 76 77 87 77 76 80 72 84 84 79 70 63 67 68 68 61 62 54 50 47 45 46 38 35 33 30 30 26 23 17 20 26 29 31 30 29 29 30 29 29 28 28 27 25 21 24 25 26 25 23 21 18 16 15 13 11 9 7 5 3 1 359 357 355 354 353 349 347 341 336
78 88 97 90 93 92 91 95 94 87 79 79 75 78 85 78 52 81 98 82 89 77 80 85 77 75 67 66 65 64 65 56 53 52 43 51 44 37 33 31 29 29 26 24 22 16 22 25 28 27 25 26 27 28 27 25 24 24 23 22 20 18 17 18 19 19 16 13 13 11 9 7 4 1 360 358 357 356 354 352 350 348 345 344 342
78 83 93 91 90 90 87 90 92 89 82 75 73 71 84 91 66 47 91 109 97 97 83 84 84 78 72 69 59 65 59 54 50 50 47 51 41 37 33 27 27 27 25 23 22 19 17 22 24 24 21 24 26 27 26 22 21 21 21 20 19 19 15 12 13 14 13 10 8 8 7 5 2 359 357 354 352 351 351 350 348 346 345 344 342
79 89 93 91 92 98 95 88 90 91 88 79 72 69 77 94 89 58 69 99 101 101 97 90 89 84 72 68 62 65 60 56 52 49 50 45 41 37 28 26 29 25 23 24 21 17 19 16 19 20 18 21 24 26 26 22 17 19 18 18 17 17 17 13 8 7 8 7 5 4 2 1 358 357 354 353 350 346 343 344 345 345 343 341 340
86 95 101 99 92 86 89 85 87 88 85 85 84 84 85 81 98 91 68 66 93 94 107 104 92 84 76 63 66 64 62 59 53 52 46 45 43 32 31 29 29 25 22 21 18 20 18 17 17 17 12 17 22 23 24 22 15 17 17 16 15 17 16 14 11 8 7 3 1 359 357 355 355 353 352 351 349 346 344 340 337 336 339 341 339
90 93 98 100 97 85 81 74 80 89 92 89 88 87 99 95 87 102 96 76 58 67 88 103 87 79 77 61 52 59 61 61 57 52 50 42 37 33 33 21 30 22 23 16 20 18 20 17 20 16 16 14 20 21 22 22 14 17 18 14 13 14 12 11 9 6 3 0 357 355 353 353 352 351 350 349 347 345 343 341 339 335 333 330 332
86 95 99 99 93 92 89 76 79 85 88 91 92 88 80 98 98 67 97 97 53 19 18 77 110 80 63 67 53 27 57 67 60 49 43 35 37 43 27 30 24 23 12 14 21 20 20 19 16 18 18 19 14 16 20 21 16 17 17 13 9 9 6 4 3 2 0 357 355 354 353 352 350 350 349 347 345 344 342 339 338 336 335 334 331
86 91 91 99 103 95 87 89 88 90 90 90 84 84 89 92 110 78 27 89 68 1 334 65 41 134 132 101 41 0 47 58 61 39 34 34 35 36 27 27 20 13 7 16 17 18 18 17 18 19 20 21 19 17 15 15 11 15 16 12 6 4 1 359 359 359 358 356 354 353 352 351 349 348 347 345 344 342 340 338 336 334 333 331 330
78 79 93 91 97 100 94 94 87 102 98 81 79 73 71 79 86 116 101 58 88 28 9 21 145 123 116 91 133 81 296 5 12 39 27 33 31 41 29 25 14 15 6 19 18 10 13 15 21 21 19 21 21 20 18 14 12 14 11 7 3 3 359 357 357 356 355 353 352 350 350 348 347 346 345 343 342 340 339 337 334 332 330 328 328
76 80 88 86 91 99 100 89 81 74 101 100 84 78 73 75 85 89 116 91 49 34 11 11 104 132 103 101 187 108 355 329 355 294 358 5 41 34 32 26 8 6 19 24 6 6 11 15 24 18 18 21 24 23 19 15 11 10 5 357 1 3 358 355 353 353 352 351 349 348 347 346 345 343 342 341 339 338 337 335 333 331 329 327 326
80 81 89 95 87 92 96 90 84 64 77 87 82 86 77 74 69 80 56 126 101 113 24 24 45 15 142 104 39 31 203 245 35 279 357 5 2 17 30 22 15 5 8 8 18 14 8 13 21 17 18 22 23 23 21 13 13 4 356 354 0 0 358 353 351 350 350 349 347 346 344 344 342 341 340 339 337 335 334 332 331 329 327 326 324
80 85 86 92 93 89 90 89 80 71 72 83 86 72 56 62 41 88 79 48 126 113 86 33 59 45 50 81 132 172 175 247 92 251 327 73 332 18 27 10 2 5 1 8 6 6 14 7 18 15 16 26 22 22 20 13 14 5 4 356 358 356 355 354 352 351 349 347 345 343 342 339 339 337 336 334 332 331 328 327 326 325 324 323 322
81 85 90 93 94 89 91 92 89 84 77 81 75 75 68 57 41 67 69 84 96 99 106 114 60 39 36 55 59 50 92 115 102 81 6 319 23 12 354 1 349 358 359 353 357 358 358 8 5 18 21 29 25 21 17 15 12 10 5 358 354 354 355 354 353 350 348 344 341 339 337 336 334 332 331 330 328 327 325 324 323 322 321 321 321
97 90 95 99 103 98 98 93 89 80 87 89 100 102 93 67 69 73 64 53 75 114 120 14 103 38 21 50 52 45 42 57 77 139 145 240 304 338 334 343 335 323 343 342 352 349 346 356 357 9 24 29 25 21 18 14 16 9 2 353 352 354 354 352 349 346 342 338 336 334 333 332 330 329 328 327 326 325 323 322 322 321 321 321 320
82 99 94 100 100 104 99 97 98 99 101 101 96 93 91 95 82 72 76 60 58 79 93 83 95 134 118 69 65 74 65 69 43 58 116 140 286 289 313 316 319 316 316 345 335 335 352 347 335 9 35 32 26 22 21 22 16 8 354 354 354 352 349 346 343 340 337 334 332 332 330 330 328 327 327 326 324 323 322 321 320 320 320 319 317
83 89 96 93 98 98 99 104 107 108 101 104 102 91 89 87 86 90 87 81 62 73 87 89 81 63 77 136 91 41 41 30 28 37 26 86 131 303 333 353 349 305 315 326 332 331 341 343 349 28 33 38 25 23 29 22 12 354 355 359 354 349 345 342 339 336 333 330 330 329 328 327 327 326 325 324 322 321 320 318 317 316 316 315 313
102 82 86 96 92 93 102 102 102 104 103 101 100 102 95 91 89 84 77 89 86 89 85 80 91 75 59 71 76 82 128 117 96 25 93 59 20 330 312 282 256 300 295 331 328 334 338 349 26 23 50 36 29 23 20 16 7 358 3 1 352 345 341 337 335 331 329 329 329 328 327 326 326 325 324 322 320 319 318 317 316 314 313 311 311
98 99 90 91 101 97 99 102 102 105 101 104 102 102 100 96 89 89 89 86 92 90 89 83 76 72 60 61 67 71 65 98 153 132 114 139 120 286 306 314 314 235 282 311 297 319 347 352 11 69 55 41 27 22 13 12 2 355 356 357 347 342 337 335 333 330 329 328 329 328 327 327 325 324 323 322 320 319 318 317 315 313 310 309 308
128 119 124 123 122 118 117 118 112 107 114 105 103 103 101 97 96 91 91 92 95 99 93 88 90 94 99 69 87 76 77 65 106 119 79 107 107 40 278 210 246 299 294 7 317 331 1 351 43 63 63 36 29 21 16 13 3 349 349 349 343 338 336 334 332 331 330 330 330 329 328 326 325 324 323 321 320 320 319 318 317 315 315 315 314
151 148 151 135 116 118 119 110 111 114 112 108 106 102 104 103 102 101 98 104 99 95 98 98 90 98 102 97 79 83 75 71 97 91 101 96 63 70 296 306 218 270 286 349 288 27 319 343 44 58 40 27 13 16 14 3 356 346 346 346 338 337 336 334 333 331 332 331 330 329 328 328 327 325 324 323 323 322 320 319 318 317 316 315 315
153 148 143 134 129 123 124 122 124 120 117 112 108 105 104 100 99 104 100 105 101 101 99 103 102 101 93 98 98 76 77 73 80 76 92 86 122 150 76 4 338 270 298 273 321 231 214 297 31 41 43 28 18 16 3 357 344 340 341 342 335 335 334 332 332 333 334 333 331 331 330 329 328 326 325 325 322 321 321 320 318 317 316 316 314
144 144 149 142 142 134 127 125 124 122 120 122 124 121 120 114 111 110 102 97 103 96 102 98 100 101 103 104 89 82 79 79 76 84 83 96 100 109 94 109 72 327 318 321 330 310 149 143 344 91 36 34 24 10 357 346 338 336 341 338 334 331 331 331 333 333 334 333 332 331 330 329 328 326 325 324 323 322 321 319 317 317 317 316 314
151 152 148 147 144 141 133 131 130 128 126 127 127 125 124 118 121 118 113 108 102 108 109 104 109 107 97 99 102 100 81 81 77 84 92 85 86 94 134 152 160 163 309 316 293 204 305 43 357 288 38 27 13 2 347 339 333 335 338 334 329 327 325 333 334 333 333 332 332 331 330 328 327 326 325 323 323 322 321 320 318 316 316 315 314
152 153 151 150 146 143 135 135 136 134 134 133 130 128 122 115 121 118 128 124 111 102 105 114 116 110 106 94 98 94 90 81 90 84 83 88 82 75 91 11 149 155 211 265 290 218 241 9 87 328 3 13 1 342 335 329 327 334 332 328 327 321 328 334 331 331 331 331 331 330 329 327 325 324 323 323 322 320 319 318 316 315 314 314 314
149 153 154 154 148 142 139 138 139 139 135 135 133 129 127 123 125 126 131 124 115 112 117 115 121 112 109 106 109 106 105 100 93 78 70 74 70 74 51 76 5 144 183 190 293 288 130 244 352 27 349 345 344 321 322 317 323 332 327 322 321 324 329 326 326 326 327 328 329 329 327 325 323 321 321 320 319 318 317 316 315 314 314 314 314
158 157 158 158 152 145 147 145 143 142 140 137 136 130 124 126 136 131 139 126 119 120 117 105 112 114 116 113 120 121 121 103 87 84 80 53 81 69 46 67 49 170 155 193 232 266 30 344 339 328 344 330 324 320 318 316 319 326 320 320 318 323 320 315 318 320 321 322 325 327 326 323 321 320 319 319 318 317 317 316 315 315 315 314 314
161 164 163 160 156 153 153 155 155 154 148 144 139 135 130 131 133 135 135 131 123 123 118 109 111 119 122 118 119 121 124 98 99 90 72 69 63 65 112 91 4 335 134 233 254 287 295 113 352 326 327 320 320 323 318 320 320 318 320 314 313 314 311 308 308 310 314 317 321 323 322 320 320 320 320 319 317 317 317 315 316 317 315 315 315
168 165 159 155 156 159 158 156 155 152 149 146 148 145 142 138 141 144 138 133 126 129 123 123 128 128 126 115 114 113 116 109 109 86 129 96 127 63 342 137 269 267 289 141 273 261 294 315 321 307 306 319 311 326 324 322 320 318 314 312 309 305 306 304 302 299 306 312 316 319 320 320 319 319 319 318 317 316 315 316 317 317 317 316 315
167 163 156 152 155 158 155 151 148 154 156 152 155 151 152 148 145 147 148 142 141 142 139 144 142 138 114 117 125 120 113 92 120 144 159 160 172 173 265 255 212 251 236 231 248 283 290 299 325 321 325 321 317 318 317 305 301 305 308 310 309 303 293 293 293 292 299 305 311 315 317 317 317 317 316 317 315 313 314 315 317 319 319 318 316
163 153 145 149 151 161 158 157 161 159 160 158 151 154 158 155 148 149 149 145 144 146 146 150 151 139 134 119 132 125 121 117 150 154 178 164 173 235 246 271 212 238 243 221 251 256 287 297 319 326 318 319 318 313 301 300 301 306 303 296 289 290 291 291 288 288 290 296 304 309 311 312 312 313 314 313 312 313 313 314 316 318 319 318 318
157 145 146 148 158 166 172 169 167 169 171 166 160 160 164 159 150 145 147 145 146 148 149 152 150 139 139 141 148 133 133 129 179 156 181 152 239 193 248 260 240 246 245 247 249 256 274 283 297 304 309 304 304 310 312 315 312 304 294 294 297 296 294 286 289 288 288 296 299 301 303 305 308 310 310 311 311 310 311 313 314 315 317 319 319
154 158 157 163 172 175 175 177 174 174 175 175 165 156 144 145 136 134 138 144 148 145 144 147 142 142 140 145 150 147 145 154 195 182 177 200 229 237 246 256 248 239 236 255 255 256 263 279 294 307 315 314 312 308 312 311 315 315 312 298 288 290 305 308 301 299 298 294 301 294 295 297 297 306 310 310 309 310 312 312 312 312 315 317 315
162 162 169 169 176 175 179 177 181 174 171 173 164 155 154 151 149 146 145 144 147 140 145 146 143 141 141 144 150 152 163 172 176 192 192 210 203 231 231 231 243 218 242 249 256 271 282 292 296 294 301 301 301 307 314 306 294 297 306 318 316 312 306 311 310 305 298 296 292 298 300 304 307 309 308 309 310 310 309 308 309 312 313 314 312
168 170 172 175 170 171 181 180 176 172 169 168 170 166 145 156 148 149 150 155 151 146 144 149 153 154 151 149 151 173 173 187 178 203 189 204 212 216 237 193 218 221 240 255 272 283 289 292 289 295 291 299 299 282 288 301 306 306 320 321 315 321 323 322 309 304 307 299 304 305 297 297 295 305 309 309 307 306 306 308 309 310 312 310 307
171 172 166 164 163 167 174 180 178 180 178 181 179 171 158 147 153 129 140 157 156 155 165 171 172 160 154 156 163 174 191 202 210 210 210 210 189 204 240 177 205 225 244 269 267 281 283 279 283 281 289 291 299 308 312 316 322 322 322 322 313 315 321 318 316 308 300 312 315 317 327 331 323 315 310 303 303 307 306 307 308 307 306 308 309
171 166 164 164 170 175 176 184 185 183 187 187 188 176 168 157 148 154 157 165 164 170 177 189 202 188 176 170 188 199 206 213 225 236 241 248 246 202 187 188 210 211 228 229 260 262 266 274 275 293 296 296 306 303 302 311 318 319 321 324 321 325 321 312 302 300 318 322 333 329 324 319 309 303 302 302 306 308 301 303 297 305 312 315 315
172 168 165 173 181 181 182 183 187 189 188 190 189 181 174 170 161 155 159 160 158 174 188 193 206 200 193 187 193 220 212 209 221 239 249 251 255 260 262 256 227 191 197 242 247 242 253 260 274 280 284 298 298 304 313 317 319 329 332 326 322 321 323 324 318 316 352 352 332 321 308 300 298 299 302 297 301 301 300 294 308 318 318 316 317
175 166 181 188 182 183 185 185 190 193 193 195 193 188 182 179 173 163 154 160 162 186 187 202 211 202 197 192 199 187 178 170 184 238 255 256 259 260 258 249 254 255 250 224 235 246 251 267 279 281 299 297 307 318 317 328 334 331 327 322 318 319 316 315 308 304 318 350 328 314 300 302 303 295 299 309 303 291 305 316 318 316 315 316 318
169 182 192 182 190 187 186 190 195 196 199 198 197 192 187 185 181 169 157 163 181 187 188 200 210 209 197 199 201 191 179 208 210 170 180 249 275 266 257 256 267 269 265 269 278 283 293 293 298 300 301 310 309 316 337 332 328 320 323 319 315 311 311 306 301 304 313 334 312 307 310 316 326 325 320 321 323 327 324 318 313 314 317 318 318
187 190 188 193 190 192 193 194 196 196 199 202 200 195 190 189 187 172 154 181 186 182 189 197 214 215 206 198 195 195 189 190 191 205 212 220 248 277 293 287 264 272 276 279 281 285 289 293 296 295 301 307 317 326 324 329 324 316 317 310 314 317 312 298 301 298 305 313 324 326 305 309 326 323 316 316 317 310 308 309 315 318 317 319 322
189 192 193 192 196 193 194 194 197 202 205 204 204 199 193 190 190 176 174 182 183 189 189 197 215 223 213 202 195 196 191 193 198 202 201 217 220 244 256 256 254 252 255 258 256 262 269 276 281 291 305 330 324 319 318 314 308 307 303 309 328 314 296 295 288 288 306 333 343 325 298 309 328 319 309 314 314 307 307 311 313 315 318 319 322
196 186 196 195 197 196 196 194 198 211 211 205 209 204 195 192 191 176 171 183 189 189 195 198 213 219 215 203 198 202 194 197 218 222 213 201 207 229 240 244 245 249 242 242 250 250 257 276 290 312 313 309 307 305 305 309 309 301 311 322 314 298 306 309 305 313 304 317 321 309 302 303 319 312 311 313 314 309 308 304 307 312 316 319 321
190 196 200 200 197 193 196 198 202 213 211 209 211 208 200 194 191 167 174 178 191 195 205 198 204 218 216 208 213 207 205 204 218 227 228 225 215 221 233 238 242 244 238 221 248 288 298 300 294 311 324 313 309 307 308 313 311 316 340 327 305 307 314 310 307 315 310 324 310 295 304 302 314 317 313 312 313 308 305 304 304 311 318 319 319
200 205 199 198 199 198 199 204 205 209 215 212 213 213 204 198 191 178 176 181 193 200 206 211 205 218 221 218 216 212 214 213 217 224 226 228 234 235 241 246 249 234 220 222 237 249 277 312 324 331 322 318 318 319 316 313 315 320 338 304 298 316 305 305 304 312 307 312 286 313 307 297 313 319 315 310 304 288 294 298 309 315 316 316 318
212 193 189 199 204 207 209 210 206 210 221 215 217 220 211 204 195 175 174 179 193 207 201 209 207 208 228 226 224 222 216 218 221 220 225 227 231 235 239 248 243 224 225 217 230 224 257 321 317 344 329 323 322 310 299 306 313 321 308 290 304 312 301 303 304 309 311 302 288 333 313 309 320 319 329 320 312 300 293 308 312 310 315 313 309